Weather History for Valentine, NE

Change the Weather History Date:

Sunday, October 7, 2012

  Actual Average Record
Temperature  
Mean Temperature 40 °F 52 °F  
Max Temperature 60 °F 67 °F 92 °F (1956)
Min Temperature 19 °F 37 °F 15 °F (1952)
Degree Days  
Heating Degree Days 25 13  
Month to date heating degree days 137 84  
Since 1 July heating degree days 255 269  
Cooling Degree Days 0 0  
Month to date cooling degree days 0 1  
Year to date cooling degree days 1303 818  
Moisture  
Dew Point 21 °F    
Average Humidity 58    
Maximum Humidity 96    
Minimum Humidity 20    
Precipitation  
Precipitation 0.00 in 0.04 in 1.30 in (1946)
Month to date precipitation 0.11 0.36  
Year to date precipitation 9.57 18.11  
Snow  
Snow 0.00 in 0.00 in 2.80 in (1970)
Month to date snowfall T 0.2  
Since 1 July snowfall T 0.9  
Since 1 September snowfall T 0.9  
Snow Depth 0.00 in    
Sea Level Pressure  
Sea Level Pressure 30.12 in    
Wind  
Wind Speed 10 mph (West)    
Max Wind Speed 22 mph    
Max Gust Speed 26 mph    
Visibility 10 miles    
Events      
T = Trace of Precipitation, MM = Missing Value Source: NWS Daily Summary

Daily Weather History Graph

Daily Weather History Graph

Search for Another Location

Airport:

Trip Planner

Search our weather history database for the weather conditions in past years. The results will help you decide how hot, cold, wet, or windy it might be!

Date:

Astronomy

Oct. 07, 2012 Rise Set
Actual Time 7:46 AM CDT 7:12 PM CDT
Civil Twilight 7:18 AM CDT 7:40 PM CDT
Nautical Twilight 6:45 AM CDT 8:13 PM CDT
Astronomical Twilight 6:12 AM CDT 8:46 PM CDT
Moon No Moon Rise 2:31 PM CDT (10/7)
Length of Visible Light 12h 21m
Length of Day
11h 25m
Waning Gibbous, 56% of the Moon is Illuminated
Oct 7
Waning Gibbous
Oct 8
Last Quarter
Oct 15
New
Oct 21
First Quarter
Oct 29
Full

Hourly Weather History & Observations

Time (CDT) Temp. Windchill Dew Point Humidity Pressure Visibility Wind Dir Wind Speed Gust Speed Precip Events Conditions
12:52 AM 27.0 °F 23.0 °F 19.9 °F 75% 30.32 in 10.0 mi WSW 3.5 mph - N/A   Clear
1:52 AM 26.1 °F 21.9 °F 21.0 °F 81% 30.30 in 10.0 mi WSW 3.5 mph - N/A   Clear
2:52 AM 23.0 °F 15.8 °F 19.9 °F 88% 30.30 in 10.0 mi WSW 5.8 mph - N/A   Clear
3:52 AM 24.1 °F 15.2 °F 21.0 °F 88% 30.27 in 10.0 mi WSW 8.1 mph - N/A   Clear
4:52 AM 23.0 °F 14.7 °F 21.0 °F 92% 30.25 in 10.0 mi SW 6.9 mph - N/A   Clear
5:52 AM 19.9 °F 11.1 °F 18.0 °F 92% 30.25 in 10.0 mi WSW 6.9 mph - N/A   Clear
6:52 AM 21.0 °F 12.4 °F 19.0 °F 92% 30.24 in 10.0 mi WSW 6.9 mph - N/A   Clear
7:52 AM 23.0 °F 13.9 °F 19.9 °F 88% 30.22 in 10.0 mi West 8.1 mph - N/A   Clear
8:52 AM 27.0 °F 19.5 °F 23.0 °F 85% 30.21 in 10.0 mi WSW 6.9 mph - N/A   Clear
9:52 AM 36.0 °F 26.7 °F 27.0 °F 70% 30.19 in 10.0 mi WSW 15.0 mph 19.6 mph N/A   Clear
10:52 AM 45.0 °F 38.5 °F 25.0 °F 46% 30.15 in 10.0 mi West 13.8 mph - N/A   Clear
11:52 AM 51.1 °F - 21.9 °F 32% 30.12 in 10.0 mi West 17.3 mph - N/A   Clear
12:52 PM 55.0 °F - 16.0 °F 22% 30.08 in 10.0 mi West 15.0 mph 23.0 mph N/A   Clear
1:52 PM 57.9 °F - 18.0 °F 21% 30.04 in 10.0 mi West 15.0 mph 20.7 mph N/A   Clear
2:52 PM 59.0 °F - 21.9 °F 24% 30.01 in 10.0 mi WNW 18.4 mph 26.5 mph N/A   Clear
3:52 PM 59.0 °F - 23.0 °F 25% 29.99 in 10.0 mi West 19.6 mph 25.3 mph N/A   Clear
4:52 PM 60.1 °F - 24.1 °F 25% 29.98 in 10.0 mi West 13.8 mph 23.0 mph N/A   Scattered Clouds
5:52 PM 59.0 °F - 23.0 °F 25% 29.98 in 10.0 mi NW 10.4 mph 17.3 mph N/A   Clear
6:52 PM 55.9 °F - 23.0 °F 28% 29.98 in 10.0 mi WNW 8.1 mph - N/A   Clear
7:52 PM 46.0 °F 43.9 °F 21.9 °F 39% 29.99 in 10.0 mi WNW 4.6 mph - N/A   Clear
8:52 PM 45.0 °F 41.8 °F 23.0 °F 42% 30.00 in 10.0 mi West 5.8 mph - N/A   Clear
9:52 PM 39.0 °F 35.7 °F 21.9 °F 50% 29.99 in 10.0 mi WSW 4.6 mph - N/A   Clear
10:52 PM 37.9 °F 35.5 °F 21.9 °F 53% 29.96 in 10.0 mi West 3.5 mph - N/A   Clear
11:52 PM 37.0 °F 30.4 °F 23.0 °F 57% 29.94 in 10.0 mi SW 9.2 mph - N/A   Clear